0 HST
1 20580U 90037B 25349.92697688 .00005667 00000-0 19308-3 0 9990
2 20580 28.4681 250.7951 0001831 280.0887 79.9502 15.28099791760489
0 ISS (ZARYA)
1 25544U 98067A 25349.89461712 .00006813 00000-0 12896-3 0 9998
2 25544 51.6305 126.8563 0003169 254.4589 105.6050 15.49611341543340
0 CXO
1 25867U 99040B 25351.90728450 .00000514 00000-0 00000-0 0 9991
2 25867 53.1169 122.3471 8128116 310.8350 0.1965 0.37801682 16634